Location: Coupvray
(48.8929°N, 2.7967°E)
Time: 10:57:06
(UTC+00:00)

Altair 2 - Visible Passes

Search period start: 20 June 2021 00:00
Search period end: 30 June 2021 00:00
Orbit: 837 x 949 km, 90.2° (Epoch: 19 June)

Date Brightness Start Highest point End Pass type
(mag) Time Alt. Az. Time Alt. Az. Time Alt. Az.
20 Jun 9.7 21:40:27 10° NNW 21:45:40 31° WNW 21:50:49 10° SW visible
21 Jun 9.8 21:41:16 10° NNW 21:46:21 28° WNW 21:51:22 10° SW visible
22 Jun 9.9 21:42:06 10° NNW 21:47:02 26° WNW 21:51:54 10° SW visible
23 Jun 10.0 21:42:56 10° NNW 21:47:42 25° WNW 21:52:25 10° WSW visible
24 Jun 10.2 21:43:47 10° NNW 21:48:22 23° WNW 21:52:55 10° WSW visible
25 Jun 10.3 21:44:39 10° NNW 21:49:02 21° WNW 21:53:23 10° WSW visible
26 Jun 10.4 21:45:32 10° NNW 21:49:42 20° WNW 21:53:50 10° WSW visible
27 Jun 10.4 21:46:25 10° NNW 21:50:22 18° WNW 21:54:16 10° WSW visible
28 Jun 10.4 21:47:20 10° NNW 21:51:01 17° WNW 21:54:40 10° WSW visible
29 Jun 10.5 21:48:17 10° NNW 21:51:40 16° WNW 21:55:02 10° W visible
